Location: Ferintosh
(52.7647°N, 112.9692°W)
Time: 22:35:22
(UTC+00:00)

S-56A Canister/Altair - Pass Details

Date: 27 May 2024
Orbit: 637 x 2489 km, 38.9° (Epoch: 19 June)

Event Time Altitude Azimuth Distance (km) Brightness Sun altitude
Rises 12:09:31 0° 223° (SW) 6,127 11.5 5.7°
Reaches altitude 10° 12:14:17 10° 214° (SW) 5,020 11.2 6.3°
Maximum altitude 12:25:43 32° 160° (SSE) 3,124 10.7 7.9°
Drops below altitude 10° 12:34:40 10° 104° (ESE) 3,915 12.1 9.1°
Sets 12:37:51 0° 94° (E) 4,642 12.8 9.6°
